This demonstration page uses our WeatherBlox Daily Observations layout. Learn more.

Left ArrowRight Arrow

Hourly Observations for April 8, 2022

Temp ( °F °C ) Dew Point ( °F °C ) Humidity (%) Winds ( mph kmh ) Pressure ( in mb ) Visibility ( mi km ) Precip ( " mm )
12:53 am 00:53 Clear 59 15 45 7.2 60 60 Calm 30.06 1018 10 16 0.00 0.00
1:53 am 01:53 Clear 57 13.9 44 6.7 62 62 Calm 30.05 1018 10 16 0.00 0.00
2:53 am 02:53 Clear 57 13.9 43 6.1 60 60 Calm 30.04 1017 10 16 0.00 0.00
3:53 am 03:53 Clear 54 12.2 45 7.2 72 72 Calm 30.04 1017 10 16 0.00 0.00
4:53 am 04:53 Clear 53 11.7 43 6.1 69 69 Calm 30.03 1017 10 16 0.00 0.00
5:53 am 05:53 Clear 52 11.1 43 6.1 72 72 N 3 6 30.04 1017 10 16 0.00 0.00
6:53 am 06:53 Sunny 51 10.6 44 6.7 77 77 Calm 30.06 1018 10 16 0.00 0.00
7:53 am 07:53 Sunny 56 13.3 44 6.7 65 65 Calm 30.07 1018 10 16 0.00 0.00
8:53 am 08:53 Sunny 64 17.8 44 6.7 48 48 Calm 30.06 1018 10 16 0.00 0.00
9:53 am 09:53 Sunny 72 22.2 43 6.1 35 35 Calm 30.05 1018 10 16 0.00 0.00
10:53 am 10:53 Sunny 78 25.6 43 6.1 29 29 W 3 6 30.05 1018 10 16 0.00 0.00
11:53 am 11:53 Sunny 80 26.7 41 5 25 25 VRB 3 6 30.04 1017 10 16 0.00 0.00
12:53 pm 12:53 Sunny 83 28.3 40 4.4 22 22 WNW 3 6 30.02 1017 10 16 0.00 0.00
1:53 pm 13:53 Sunny 85 29.4 39 3.9 20 20 Calm 29.98 1015 10 16 0.00 0.00
2:53 pm 14:53 Sunny 86 30 29 -1.7 13 13 WSW 3 6 29.96 1015 10 16 0.00 0.00
3:53 pm 15:53 Sunny 88 31.1 14 -10 6 6 VRB 6 9 29.94 1014 10 16 0.00 0.00
4:53 pm 16:53 Sunny 86 30 18 -7.8 8 8 WSW 9 15 29.93 1014 10 16 0.00 0.00
5:53 pm 17:53 Sunny 84 28.9 30 -1.1 14 14 NW 12 19 29.92 1013 10 16 0.00 0.00
6:53 pm 18:53 Sunny 80 26.7 33 0.6 18 18 WNW 12 19 29.92 1013 10 16 0.00 0.00
7:53 pm 19:53 Clear 75 23.9 30 -1.1 19 19 WNW 14 22 29.93 1013 10 16 0.00 0.00
8:53 pm 20:53 Clear 72 22.2 30 -1.1 21 21 NW 7 11 29.97 1015 10 16 0.00 0.00
9:53 pm 21:53 Clear 69 20.6 31 -0.6 24 24 WNW 6 9 30.00 1016 10 16 0.00 0.00
10:53 pm 22:53 Clear 66 18.9 31 -0.6 27 27 NNW 6 9 30.01 1016 10 16 0.00 0.00
11:53 pm 23:53 Clear 64 17.8 30 -1.1 28 28 NNW 7 11 30.01 1016 10 16 0.00 0.00

Powered by AerisWeather